Weather History for KMLU - April, 2014

Change the Weather History Date:

Thursday, April 3, 2014

  Actual Average Record
Temperature  
Mean Temperature 78 °F 62 °F  
Max Temperature 84 °F 75 °F 90 °F (1934)
Min Temperature 71 °F 50 °F 33 °F (1975)
Degree Days  
Heating Degree Days 0 5  
Month to date heating degree days 0 15  
Since 1 July heating degree days 2700 2159  
Cooling Degree Days 13 2  
Month to date cooling degree days 21 6  
Year to date cooling degree days 30 49  
Growing Degree Days 28 (Base 50)    
Moisture  
Dew Point 65 °F    
Average Humidity 68    
Maximum Humidity 84    
Minimum Humidity 51    
Precipitation  
Precipitation T in 0.14 in 3.01 in (1957)
Month to date precipitation T 0.43  
Year to date precipitation 8.78 14.79  
Snow  
Snow 0.00 in - - ()
Month to date snowfall 0.0  
Since 1 July snowfall 0.5  
Snow Depth 0.00 in    
Sea Level Pressure  
Sea Level Pressure 29.85 in    
Wind  
Wind Speed 13 mph (South)    
Max Wind Speed 22 mph    
Max Gust Speed 33 mph    
Visibility 10 miles    
Events Rain    
T = Trace of Precipitation, MM = Missing Value Source: NWS Daily Summary

Daily Weather History Graph

Daily Weather History Graph

Search for Another Location

Airport or City:

Trip Planner

Search our weather history database for the weather conditions in past years. The results will help you decide how hot, cold, wet, or windy it might be!

Date:

Astronomy

Apr. 03, 2014 Rise Set
Actual Time 6:53 AM CDT 7:29 PM CDT
Civil Twilight 6:28 AM CDT 7:54 PM CDT
Nautical Twilight 5:59 AM CDT 8:23 PM CDT
Astronomical Twilight 5:30 AM CDT 8:53 PM CDT
Moon 9:33 AM CDT (4/3) 11:37 PM CDT (4/3)
Length of Visible Light 13h 25m
Length of Day
12h 35m
Waxing Crescent, 17% of the Moon is Illuminated
Apr 3
Waxing Crescent
Apr 7
First Quarter
Apr 15
Full
Apr 22
Last Quarter
Apr 29
New

Hourly Weather History & Observations

Time (CDT) Temp. Heat Index Dew Point Humidity Pressure Visibility Wind Dir Wind Speed Gust Speed Precip Events Conditions
12:53 AM 73.0 °F - 63.0 °F 71% 29.91 in 10.0 mi South 12.7 mph 20.7 mph N/A   Clear
1:53 AM 72.0 °F - 64.0 °F 76% 29.90 in 10.0 mi South 11.5 mph - N/A   Overcast
2:11 AM 71.6 °F - 64.4 °F 78% 29.90 in 10.0 mi South 11.5 mph 19.6 mph N/A   Scattered Clouds
2:53 AM 71.1 °F - 64.9 °F 81% 29.88 in 10.0 mi South 10.4 mph - N/A   Overcast
3:41 AM 71.6 °F - 64.4 °F 78% 29.88 in 10.0 mi South 12.7 mph 19.6 mph N/A   Overcast
3:53 AM 71.1 °F - 66.0 °F 84% 29.88 in 10.0 mi South 10.4 mph 18.4 mph N/A   Overcast
4:53 AM 71.1 °F - 66.0 °F 84% 29.87 in 10.0 mi South 12.7 mph - N/A   Overcast
5:33 AM 71.6 °F - 66.2 °F 83% 29.87 in 10.0 mi South 12.7 mph 20.7 mph N/A   Overcast
5:53 AM 71.1 °F - 66.0 °F 84% 29.87 in 10.0 mi South 11.5 mph - N/A   Overcast
6:53 AM 71.1 °F - 66.9 °F 87% 29.87 in 10.0 mi South 16.1 mph 21.9 mph N/A   Overcast
7:49 AM 71.6 °F - 66.2 °F 83% 29.89 in 10.0 mi South 11.5 mph 23.0 mph N/A   Overcast
7:50 AM 72.0 °F - 66.9 °F 84% 29.88 in 10.0 mi South 11.5 mph 23.0 mph N/A   Overcast
8:38 AM 71.6 °F - 66.2 °F 83% 29.89 in 10.0 mi South 11.5 mph 21.9 mph N/A   Overcast
8:53 AM 73.0 °F - 66.9 °F 81% 29.88 in 10.0 mi South 13.8 mph 21.9 mph N/A   Overcast
9:53 AM 73.9 °F - 66.9 °F 79% 29.88 in 6.0 mi South 12.7 mph 21.9 mph N/A   Haze
10:53 AM 75.9 °F - 66.0 °F 71% 29.87 in 10.0 mi South 11.5 mph 23.0 mph N/A   Overcast
11:38 AM 78.8 °F - 64.4 °F 61% 29.87 in 10.0 mi SSW 15.0 mph 31.1 mph N/A   Scattered Clouds
11:53 AM 80.1 °F 81.9 °F 64.9 °F 60% 29.86 in 10.0 mi SSW 15.0 mph 23.0 mph N/A   Scattered Clouds
12:53 PM 82.0 °F 83.4 °F 64.0 °F 54% 29.87 in 10.0 mi South 15.0 mph 25.3 mph N/A   Partly Cloudy
1:53 PM 84.0 °F 85.4 °F 64.0 °F 51% 29.85 in 10.0 mi South 12.7 mph 21.9 mph N/A   Scattered Clouds
2:53 PM 82.0 °F 83.0 °F 62.1 °F 51% 29.82 in 10.0 mi South 17.3 mph 26.5 mph N/A   Clear
3:53 PM 82.9 °F 83.7 °F 62.1 °F 49% 29.81 in 10.0 mi South 17.3 mph 25.3 mph N/A   Mostly Cloudy
4:53 PM 82.0 °F 83.1 °F 63.0 °F 52% 29.80 in 10.0 mi South 16.1 mph 25.3 mph N/A   Mostly Cloudy
5:53 PM 81.0 °F 82.7 °F 64.9 °F 58% 29.80 in 10.0 mi South 8.1 mph - N/A   Mostly Cloudy
6:53 PM 80.1 °F 82.1 °F 66.0 °F 62% 29.81 in 10.0 mi SSW 11.5 mph 20.7 mph N/A   Partly Cloudy
7:53 PM 77.0 °F - 66.9 °F 71% 29.79 in 10.0 mi South 12.7 mph 19.6 mph N/A   Clear
8:53 PM 75.9 °F - 66.9 °F 74% 29.78 in 10.0 mi South 12.7 mph 21.9 mph N/A   Scattered Clouds
9:23 PM 75.2 °F - 66.2 °F 73% 29.79 in 10.0 mi South 12.7 mph 25.3 mph N/A   Mostly Cloudy
10:53 PM 75.0 °F - 68.0 °F 79% 29.81 in 10.0 mi South 12.7 mph 21.9 mph N/A   Overcast
11:53 PM 73.9 °F - 68.0 °F 82% 29.77 in 10.0 mi SSE 19.6 mph 26.5 mph 0.00 in Rain Light Rain